Regional Weather Roundup
Issued by NWS

Home | Current Version | Previous Version | Text Only | Print | Product List | Glossary On
Versions: 1 2 3 4 5 6 7 8 9 10 11 12 13 14 15 16 17 18 19 20 21 22 23 24 25 26 27 28 29 30 31 32 33 34 35 36 37 38 39 40 41 42 43 44 45 46 47 48 49 50
000
ASUS44 KJAN 312210
RWRMS

MISSISSIPPI HOURLY WEATHER ROUNDUP
NATIONAL WEATHER SERVICE JACKSON MS
400 PM CST SAT JAN 31 2015

NOTE: "FAIR: INDICATES FEW OR NO CLOUDS BELOW 12,000 FEET WITH NO
SIGNIFICANT WEATHER AND/OR OBSTRUCTIONS TO VISIBILITY.

MSZ001>002-007>008-010>013-018>021-025>028-034>036-312300-
NORTHWEST MISSISSIPPI

CITY           SKY/WX    TMP DP  RH WIND       PRES   REMARKS
CLARKSDALE     FAIR      48  32  53 E3        30.21F
CLEVELAND      FAIR      52  31  44 E6        30.19F
GREENWOOD      MOSUNNY   63  20  19 SE10      30.18F
GREENVILLE     PTSUNNY   57  26  30 E8        30.17F
GRENADA        FAIR      52  28  40 E6        30.21F
OLIVE BRANCH   CLOUDY    45  27  49 E6        30.22F
OXFORD         FAIR      48  23  37 MISG      30.23F
TUNICA         CLOUDY    46  32  57 NE6       30.22F
$$

MSZ003>006-009-014>017-022>024-029>033-037>039-312300-
NORTHEAST MISSISSIPPI

CITY           SKY/WX    TMP DP  RH WIND       PRES   REMARKS
COLUMBUS AFB   CLOUDY    60  13  15 SE7       30.22F
CORINTH        CLOUDY    48  25  40 CALM      30.24S
GOLDN TRIANGLE SUNNY     57  23  26 SE7       30.22F
STARKVILLE     FAIR      55  23  28 SE7       30.22S
TUPELO         CLOUDY    54  19  25 E5        30.23F
$$

MSZ040-058-312300-
CENTRAL MISSISSIPPI

CITY           SKY/WX    TMP DP  RH WIND       PRES   REMARKS
JACKSON INTL   PTSUNNY   61  25  25 SE7       30.19F
JACKSON HAWKNS PTSUNNY   60  23  24 SE8       30.18F
MERIDIAN KEY   PTSUNNY   60  17  18 SE8       30.21F
MERIDIAN NAS   CLOUDY    57  22  25 E9        30.22F
RAYMOND        FAIR      59  55  88 S6        30.18F
VICKSBURG      PTSUNNY   60  27  28 SE8       30.17F
$$

MSZ059>079-312300-
SOUTH MISSISSIPPI

CITY           SKY/WX    TMP DP  RH WIND       PRES   REMARKS
BROOKHAVEN     FAIR      57  32  38 E5        30.20F
HATTIESBURG    CLOUDY    61  29  29 SE7       30.21F
MCCOMB         CLOUDY    58  35  42 SE8       30.19F
NATCHEZ        PTSUNNY   61  34  36 SE12      30.16F
PINE BELT      PTSUNNY   59  25  27 SE5       30.22S
$$

MSZ080>082-312300-
COASTAL MISSISSIPPI

CITY           SKY/WX    TMP DP  RH WIND       PRES   REMARKS
BAY ST LOUIS   SUNNY     57  43  58 E10       30.22F
BILOXI         PTSUNNY   59  46  62 E13       30.21F
PASCAGOULA     SUNNY     59  43  55 SE9       30.22F
GULFPORT       CLOUDY    57  45  64 E14       30.21F
$$



USA.gov is the U.S. government's official web portal to all federal, state and local government web resources and services.